| time (UTC) | temp F | wind direction | speed knots | gust knots | rain 1hr in | rain 24hr in | rain mn in | humidity % | barometer mb |
| 20260503213315 | 66 | 322 | 5.2 | 12.2 | 0.00 | 0.01 | 0.01 | 22 | 1002.9 |
| 20260503212815 | 66 | 348 | 4.3 | 12.2 | 0.00 | 0.01 | 0.01 | 21 | 1002.9 |
| 20260503212315 | 66 | 309 | 3.5 | 10.4 | 0.00 | 0.01 | 0.01 | 20 | 1002.8 |
| 20260503211815 | 67 | 276 | 3.5 | 9.6 | 0.00 | 0.01 | 0.01 | 22 | 1002.8 |
| 20260503211315 | 67 | 269 | 4.3 | 11.3 | 0.00 | 0.01 | 0.01 | 20 | 1002.9 |
| 20260503210815 | 66 | 275 | 4.3 | 9.6 | 0.00 | 0.01 | 0.01 | 21 | 1002.8 |
| 20260503210315 | 66 | 348 | 5.2 | 12.2 | 0.00 | 0.01 | 0.01 | 21 | 1002.8 |
| 20260503205815 | 66 | 210 | 5.2 | 13.9 | 0.00 | 0.01 | 0.01 | 21 | 1002.7 |
| 20260503205315 | 67 | 306 | 4.3 | 9.6 | 0.00 | 0.01 | 0.01 | 23 | 1002.8 |
| 20260503204815 | 66 | 275 | 5.2 | 10.4 | 0.00 | 0.01 | 0.01 | 22 | 1002.8 |
| 20260503204315 | 67 | 315 | 6.1 | 13.9 | 0.00 | 0.01 | 0.01 | 22 | 1003.0 |
| 20260503203815 | 67 | 263 | 5.2 | 13.0 | 0.00 | 0.01 | 0.01 | 25 | 1003.0 |
| 20260503203315 | 67 | 45 | 5.2 | 9.6 | 0.00 | 0.01 | 0.01 | 26 | 1002.9 |
| 20260503202815 | 66 | 349 | 5.2 | 17.4 | 0.00 | 0.01 | 0.01 | 24 | 1002.9 |
| 20260503202315 | 66 | 275 | 5.2 | 9.6 | 0.00 | 0.01 | 0.01 | 24 | 1003.0 |
| 20260503201815 | 66 | 309 | 7.0 | 11.3 | 0.00 | 0.01 | 0.01 | 24 | 1003.1 |
| 20260503201315 | 66 | 321 | 6.1 | 12.2 | 0.00 | 0.01 | 0.01 | 27 | 1003.2 |
| 20260503200815 | 67 | 311 | 5.2 | 12.2 | 0.00 | 0.01 | 0.01 | 24 | 1003.1 |
| 20260503200315 | 66 | 344 | 6.1 | 14.8 | 0.00 | 0.01 | 0.01 | 27 | 1003.3 |
| 20260503195815 | 66 | 349 | 6.1 | 13.9 | 0.00 | 0.01 | 0.01 | 27 | 1003.2 |
| 20260503195315 | 66 | 338 | 4.3 | 9.6 | 0.00 | 0.01 | 0.01 | 29 | 1003.1 |
| 20260503194815 | 66 | 275 | 4.3 | 10.4 | 0.00 | 0.01 | 0.01 | 29 | 1003.2 |
| 20260503194315 | 66 | 355 | 4.3 | 11.3 | 0.00 | 0.01 | 0.01 | 30 | 1003.1 |
| 20260503193815 | 66 | 213 | 4.3 | 11.3 | 0.00 | 0.01 | 0.01 | 28 | 1003.2 |
| 20260503193315 | 66 | 169 | 5.2 | 16.5 | 0.00 | 0.01 | 0.01 | 28 | 1003.1 |
| 20260503192815 | 66 | 272 | 5.2 | 13.0 | 0.00 | 0.01 | 0.01 | 29 | 1003.3 |
| 20260503192315 | 66 | 217 | 5.2 | 13.9 | 0.00 | 0.01 | 0.01 | 30 | 1003.3 |
| 20260503191815 | 66 | 198 | 5.2 | 10.4 | 0.00 | 0.01 | 0.01 | 32 | 1003.4 |
| 20260503191315 | 66 | 310 | 5.2 | 13.0 | 0.00 | 0.01 | 0.01 | 31 | 1003.3 |
| 20260503190815 | 65 | 230 | 5.2 | 11.3 | 0.00 | 0.01 | 0.01 | 29 | 1003.4 |
| 20260503190315 | 66 | 5 | 4.3 | 11.3 | 0.00 | 0.01 | 0.01 | 29 | 1003.5 |
| 20260503185815 | 66 | 229 | 3.5 | 8.7 | 0.00 | 0.01 | 0.01 | 32 | 1003.6 |
| 20260503185315 | 65 | 96 | 3.5 | 8.7 | 0.00 | 0.01 | 0.01 | 32 | 1003.5 |
| 20260503184815 | 65 | 348 | 4.3 | 8.7 | 0.00 | 0.01 | 0.01 | 33 | 1003.7 |
| 20260503184315 | 65 | 289 | 5.2 | 13.0 | 0.00 | 0.01 | 0.01 | 32 | 1003.7 |
| 20260503183815 | 65 | 291 | 5.2 | 13.0 | 0.00 | 0.01 | 0.01 | 32 | 1003.9 |
| 20260503183315 | 65 | 293 | 4.3 | 13.0 | 0.00 | 0.01 | 0.01 | 33 | 1003.7 |
| 20260503182815 | 65 | 318 | 5.2 | 12.2 | 0.00 | 0.01 | 0.01 | 34 | 1003.8 |
| 20260503182315 | 65 | 225 | 5.2 | 11.3 | 0.00 | 0.01 | 0.01 | 35 | 1003.9 |
| 20260503181815 | 64 | 249 | 6.1 | 8.7 | 0.00 | 0.01 | 0.01 | 36 | 1003.9 |
| 20260503181315 | 64 | 5 | 7.0 | 12.2 | 0.00 | 0.01 | 0.01 | 36 | 1003.9 |
| 20260503180815 | 64 | 276 | 7.0 | 14.8 | 0.00 | 0.01 | 0.01 | 35 | 1004.0 |
| 20260503180315 | 65 | 335 | 7.0 | 12.2 | 0.00 | 0.01 | 0.01 | 35 | 1003.9 |
| 20260503175815 | 65 | 348 | 5.2 | 13.9 | 0.00 | 0.01 | 0.01 | 36 | 1004.0 |
| 20260503175315 | 65 | 298 | 4.3 | 14.8 | 0.00 | 0.01 | 0.01 | 34 | 1004.0 |
| 20260503174815 | 65 | 302 | 4.3 | 8.7 | 0.00 | 0.01 | 0.01 | 35 | 1004.2 |
| 20260503174315 | 65 | 315 | 5.2 | 11.3 | 0.00 | 0.01 | 0.01 | 36 | 1004.0 |
| 20260503173815 | 64 | 22 | 4.3 | 15.6 | 0.00 | 0.01 | 0.01 | 38 | 1004.1 |
| 20260503173315 | 64 | 204 | 4.3 | 13.0 | 0.00 | 0.01 | 0.01 | 38 | 1004.1 |
| 20260503172815 | 64 | 22 | 5.2 | 10.4 | 0.00 | 0.01 | 0.01 | 39 | 1004.2 |
| 20260503172315 | 64 | 304 | 5.2 | 13.9 | 0.00 | 0.01 | 0.01 | 40 | 1004.2 |
| 20260503171815 | 63 | 306 | 6.1 | 13.0 | 0.00 | 0.01 | 0.01 | 43 | 1004.2 |
| 20260503171315 | 63 | 350 | 5.2 | 15.6 | 0.00 | 0.01 | 0.01 | 43 | 1004.3 |
| 20260503170815 | 63 | 5 | 4.3 | 8.7 | 0.00 | 0.01 | 0.01 | 41 | 1004.4 |
| 20260503170315 | 63 | 316 | 5.2 | 12.2 | 0.00 | 0.01 | 0.01 | 42 | 1004.5 |
| 20260503150815 | 59 | 139 | 3.5 | 10.4 | 0.00 | 0.01 | 0.01 | 50 | 1004.8 |
| 20260503150316 | 59 | 283 | 2.6 | 7.0 | 0.00 | 0.01 | 0.01 | 54 | 1004.8 |
| 20260503131316 | 56 | 207 | 1.7 | 7.0 | 0.00 | 0.01 | 0.01 | 60 | 1005.1 |
| 20260503130816 | 56 | 255 | 1.7 | 7.0 | 0.00 | 0.01 | 0.01 | 60 | 1005.1 |
| 20260503130316 | 55 | 190 | 1.7 | 12.2 | 0.00 | 0.01 | 0.01 | 62 | 1005.1 |
| 20260503110816 | 42 | 173 | 0.0 | 0.0 | 0.00 | 0.01 | 0.01 | 89 | 1005.1 |
| 20260503110316 | 42 | 202 | 0.0 | 0.0 | 0.00 | 0.01 | 0.01 | 90 | 1005.2 |
| 20260503090316 | 46 | 229 | 0.0 | 0.0 | 0.00 | 0.01 | 0.01 | 86 | 1006.3 |
| 20260503081316 | 47 | 229 | 0.0 | 0.0 | 0.00 | 0.01 | 0.01 | 85 | 1006.7 |
| 20260503080817 | 47 | 229 | 0.0 | 0.0 | 0.00 | 0.01 | 0.01 | 86 | 1006.8 |
| 20260503080316 | 47 | 229 | 0.0 | 0.0 | 0.00 | 0.01 | 0.01 | 85 | 1006.9 |
| 20260503072817 | 48 | 229 | 0.0 | 0.0 | 0.01 | 0.01 | 0.01 | 84 | 1007.7 |
| 20260503072317 | 48 | 229 | 0.0 | 0.0 | 0.01 | 0.01 | 0.01 | 84 | 1007.8 |
| 20260503071817 | 48 | 229 | 0.0 | 0.0 | 0.01 | 0.01 | 0.01 | 84 | 1007.8 |
| 20260503071317 | 49 | 229 | 0.9 | 0.0 | 0.01 | 0.01 | 0.01 | 84 | 1008.0 |
| 20260503070817 | 49 | 229 | 0.9 | 5.2 | 0.01 | 0.01 | 0.01 | 83 | 1008.2 |
| 20260503070317 | 49 | 275 | 0.0 | 1.7 | 0.01 | 0.01 | 0.01 | 84 | 1008.2 |
| 20260503060317 | 53 | 292 | 0.0 | 2.6 | 0.00 | 0.00 | 0.00 | 63 | 1008.8 |
| 20260503054817 | 54 | 99 | 0.0 | 0.9 | 0.00 | 0.00 | 0.00 | 56 | 1009.1 |
| 20260503054317 | 54 | 61 | 0.0 | 1.7 | 0.00 | 0.00 | 0.00 | 56 | 1009.1 |
| 20260503053817 | 54 | 290 | 0.9 | 0.9 | 0.00 | 0.00 | 0.00 | 55 | 1009.1 |
| 20260503053317 | 54 | 300 | 0.9 | 7.0 | 0.00 | 0.00 | 0.00 | 55 | 1009.1 |
| 20260503052817 | 54 | 272 | 0.9 | 2.6 | 0.00 | 0.00 | 0.00 | 55 | 1009.1 |
| 20260503052317 | 54 | 298 | 0.9 | 3.5 | 0.00 | 0.00 | 0.00 | 54 | 1009.1 |
| 20260503051817 | 54 | 229 | 0.9 | 2.6 | 0.00 | 0.00 | 0.00 | 54 | 1009.2 |
| 20260503051317 | 54 | 229 | 1.7 | 6.1 | 0.00 | 0.00 | 0.00 | 55 | 1009.2 |
| 20260503050817 | 54 | 248 | 0.9 | 4.3 | 0.00 | 0.00 | 0.00 | 56 | 1009.2 |
| 20260503050317 | 54 | 5 | 0.9 | 4.3 | 0.00 | 0.00 | 0.00 | 57 | 1009.2 |
| 20260503045817 | 53 | 192 | 0.9 | 4.3 | 0.00 | 0.00 | 0.00 | 57 | 1009.2 |
| 20260503045317 | 53 | 281 | 0.0 | 1.7 | 0.00 | 0.00 | 0.00 | 59 | 1009.2 |
| 20260503044817 | 53 | 158 | 0.0 | 0.0 | 0.00 | 0.00 | 0.00 | 58 | 1009.2 |
| 20260503044317 | 53 | 158 | 0.0 | 0.0 | 0.00 | 0.00 | 0.00 | 58 | 1009.2 |
| 20260503043817 | 54 | 261 | 0.0 | 2.6 | 0.00 | 0.00 | 0.00 | 56 | 1009.3 |
| 20260503043317 | 54 | 254 | 0.0 | 0.0 | 0.00 | 0.00 | 0.00 | 57 | 1009.3 |
| 20260503042817 | 54 | 235 | 0.0 | 0.0 | 0.00 | 0.00 | 0.00 | 56 | 1009.3 |
| 20260503042317 | 55 | 235 | 0.9 | 0.9 | 0.00 | 0.00 | 0.00 | 55 | 1009.4 |
| 20260503041817 | 55 | 266 | 0.9 | 2.6 | 0.00 | 0.00 | 0.00 | 55 | 1009.5 |
| 20260503041317 | 55 | 219 | 1.7 | 2.6 | 0.00 | 0.00 | 0.00 | 55 | 1009.6 |
| 20260503040817 | 55 | 350 | 1.7 | 5.2 | 0.00 | 0.00 | 0.00 | 54 | 1009.6 |
| 20260503040317 | 55 | 287 | 1.7 | 7.0 | 0.00 | 0.00 | 0.00 | 54 | 1009.7 |
| 20260503035817 | 55 | 40 | 1.7 | 3.5 | 0.00 | 0.00 | 0.00 | 55 | 1009.8 |
| 20260503035317 | 55 | 231 | 0.9 | 9.6 | 0.00 | 0.00 | 0.00 | 54 | 1009.9 |
| 20260503034817 | 55 | 301 | 1.7 | 3.5 | 0.00 | 0.00 | 0.00 | 55 | 1009.9 |
| 20260503034317 | 55 | 312 | 2.6 | 7.8 | 0.00 | 0.00 | 0.00 | 55 | 1010.0 |
| 20260503033817 | 54 | 152 | 1.7 | 7.8 | 0.00 | 0.00 | 0.00 | 56 | 1010.0 |
| 20260503033317 | 53 | 284 | 1.7 | 6.1 | 0.00 | 0.00 | 0.00 | 57 | 1009.9 |
| 20260503032817 | 53 | 186 | 1.7 | 4.3 | 0.00 | 0.00 | 0.00 | 56 | 1010.0 |
| 20260503032317 | 53 | 112 | 0.9 | 4.3 | 0.00 | 0.00 | 0.00 | 56 | 1010.1 |
| 20260503031817 | 53 | 253 | 0.9 | 1.7 | 0.00 | 0.00 | 0.00 | 56 | 1010.2 |
| 20260503031317 | 52 | 323 | 0.9 | 3.5 | 0.00 | 0.00 | 0.00 | 57 | 1010.1 |
| 20260503030817 | 52 | 93 | 0.9 | 2.6 | 0.00 | 0.00 | 0.00 | 56 | 1010.3 |
| 20260503030317 | 52 | 302 | 0.9 | 1.7 | 0.00 | 0.00 | 0.00 | 58 | 1010.3 |
| 20260503025817 | 53 | 183 | 0.9 | 3.5 | 0.00 | 0.00 | 0.00 | 59 | 1010.5 |
| 20260503025317 | 53 | 305 | 0.9 | 1.7 | 0.00 | 0.00 | 0.00 | 57 | 1010.5 |
| 20260503024817 | 53 | 322 | 1.7 | 5.2 | 0.00 | 0.00 | 0.00 | 57 | 1010.5 |
| 20260503024317 | 52 | 291 | 1.7 | 2.6 | 0.00 | 0.00 | 0.00 | 55 | 1010.5 |
| 20260503023817 | 52 | 123 | 1.7 | 3.5 | 0.00 | 0.00 | 0.00 | 54 | 1010.4 |
| 20260503023317 | 52 | 145 | 0.9 | 3.5 | 0.00 | 0.00 | 0.00 | 54 | 1010.6 |
| 20260503022817 | 52 | 125 | 1.7 | 3.5 | 0.00 | 0.00 | 0.00 | 53 | 1010.5 |
| 20260503022317 | 51 | 191 | 0.9 | 7.0 | 0.00 | 0.00 | 0.00 | 54 | 1010.5 |
| 20260503021817 | 51 | 194 | 0.0 | 0.0 | 0.00 | 0.00 | 0.00 | 52 | 1010.5 |
| 20260503021317 | 51 | 132 | 0.0 | 0.0 | 0.00 | 0.00 | 0.00 | 53 | 1010.6 |
| 20260503020817 | 51 | 59 | 0.0 | 0.0 | 0.00 | 0.00 | 0.00 | 52 | 1010.5 |
| 20260503020317 | 51 | 5 | 0.0 | 0.0 | 0.00 | 0.00 | 0.00 | 53 | 1010.6 |
| 20260503015817 | 51 | 31 | 0.0 | 0.9 | 0.00 | 0.00 | 0.00 | 52 | 1010.6 |
| 20260503015317 | 52 | 88 | 0.0 | 0.0 | 0.00 | 0.00 | 0.00 | 52 | 1010.5 |
| 20260503014817 | 52 | 88 | 0.0 | 1.7 | 0.00 | 0.00 | 0.00 | 51 | 1010.6 |
| 20260503014317 | 52 | 134 | 0.0 | 1.7 | 0.00 | 0.00 | 0.00 | 50 | 1010.6 |
| 20260503013817 | 53 | 138 | 0.0 | 0.9 | 0.00 | 0.00 | 0.00 | 50 | 1010.6 |
| 20260503013317 | 53 | 145 | 0.0 | 1.7 | 0.00 | 0.00 | 0.00 | 49 | 1010.6 |
| 20260503012817 | 53 | 185 | 0.9 | 1.7 | 0.00 | 0.00 | 0.00 | 49 | 1010.6 |
| 20260503012317 | 54 | 138 | 0.9 | 2.6 | 0.00 | 0.00 | 0.00 | 47 | 1010.6 |
| 20260503011817 | 54 | 213 | 0.9 | 2.6 | 0.00 | 0.00 | 0.00 | 47 | 1010.6 |
| 20260503011317 | 54 | 136 | 0.9 | 2.6 | 0.00 | 0.00 | 0.00 | 47 | 1010.6 |
| 20260503010818 | 55 | 170 | 0.9 | 2.6 | 0.00 | 0.00 | 0.00 | 46 | 1010.6 |
| 20260503010317 | 55 | 170 | 0.9 | 3.5 | 0.00 | 0.00 | 0.00 | 44 | 1010.7 |
| 20260503005817 | 55 | 169 | 0.0 | 2.6 | 0.00 | 0.00 | 0.00 | 44 | 1010.7 |
| 20260503005317 | 55 | 142 | 0.0 | 1.7 | 0.00 | 0.00 | 0.00 | 44 | 1010.8 |
| 20260503004817 | 55 | 272 | 0.0 | 0.0 | 0.00 | 0.00 | 0.00 | 44 | 1010.8 |
| 20260503004317 | 56 | 272 | 0.0 | 0.0 | 0.00 | 0.00 | 0.00 | 43 | 1010.9 |
| 20260503003818 | 56 | 272 | 0.0 | 1.7 | 0.00 | 0.00 | 0.00 | 42 | 1011.0 |
| 20260503003318 | 56 | 186 | 0.0 | 2.6 | 0.00 | 0.00 | 0.00 | 44 | 1011.0 |
| 20260503002818 | 56 | 155 | 0.0 | 2.6 | 0.00 | 0.00 | 0.00 | 43 | 1011.0 |
| 20260503002318 | 56 | 250 | 0.9 | 0.9 | 0.00 | 0.00 | 0.00 | 42 | 1011.1 |
| 20260503001818 | 57 | 250 | 0.9 | 1.7 | 0.00 | 0.00 | 0.00 | 43 | 1011.1 |
| 20260503001318 | 57 | 333 | 0.9 | 1.7 | 0.00 | 0.00 | 0.00 | 42 | 1011.1 |
| 20260503000818 | 57 | 130 | 0.9 | 1.7 | 0.00 | 0.00 | 0.00 | 42 | 1011.2 |
| 20260503000318 | 57 | 82 | 0.9 | 2.6 | 0.00 | 0.00 | 0.00 | 40 | 1011.3 |
| 20260502235818 | 57 | 96 | 0.9 | 3.5 | 0.00 | 0.00 | 0.00 | 41 | 1011.4 |
| 20260502235318 | 57 | 310 | 0.9 | 1.7 | 0.00 | 0.00 | 0.00 | 40 | 1011.4 |
| 20260502234818 | 57 | 269 | 0.9 | 2.6 | 0.00 | 0.00 | 0.00 | 39 | 1011.5 |
| 20260502234318 | 58 | 205 | 0.9 | 5.2 | 0.00 | 0.00 | 0.00 | 42 | 1011.6 |
| 20260502233818 | 58 | 61 | 0.9 | 2.6 | 0.00 | 0.00 | 0.00 | 38 | 1011.6 |
| 20260502233318 | 58 | 240 | 0.9 | 1.7 | 0.00 | 0.00 | 0.00 | 40 | 1011.6 |
| 20260502232818 | 58 | 69 | 0.9 | 3.5 | 0.00 | 0.00 | 0.00 | 39 | 1011.7 |
| 20260502232318 | 58 | 179 | 0.9 | 2.6 | 0.00 | 0.00 | 0.00 | 38 | 1011.8 |
| 20260502231818 | 58 | 240 | 1.7 | 3.5 | 0.00 | 0.00 | 0.00 | 39 | 1011.8 |
| 20260502231318 | 58 | 18 | 1.7 | 7.0 | 0.00 | 0.00 | 0.00 | 39 | 1011.9 |
| 20260502230818 | 58 | 185 | 0.9 | 2.6 | 0.00 | 0.00 | 0.00 | 38 | 1012.2 |
| 20260502230318 | 58 | 250 | 0.9 | 4.3 | 0.00 | 0.00 | 0.00 | 40 | 1012.0 |
| 20260502225818 | 58 | 46 | 0.9 | 2.6 | 0.00 | 0.00 | 0.00 | 39 | 1012.0 |
| 20260502225318 | 59 | 220 | 1.7 | 2.6 | 0.00 | 0.00 | 0.00 | 36 | 1011.9 |
| 20260502224818 | 59 | 219 | 1.7 | 4.3 | 0.00 | 0.00 | 0.00 | 36 | 1012.1 |
| 20260502224318 | 59 | 208 | 1.7 | 4.3 | 0.00 | 0.00 | 0.00 | 35 | 1012.0 |
| 20260502223818 | 60 | 13 | 1.7 | 4.3 | 0.00 | 0.00 | 0.00 | 36 | 1012.2 |
| 20260502223318 | 60 | 312 | 2.6 | 7.8 | 0.00 | 0.00 | 0.00 | 36 | 1012.2 |
| 20260502222818 | 60 | 220 | 2.6 | 7.0 | 0.00 | 0.00 | 0.00 | 35 | 1012.2 |
| 20260502222318 | 60 | 321 | 2.6 | 7.8 | 0.00 | 0.00 | 0.00 | 34 | 1012.3 |
| 20260502221818 | 60 | 252 | 2.6 | 7.0 | 0.00 | 0.00 | 0.00 | 34 | 1012.4 |
| 20260502221318 | 60 | 297 | 2.6 | 7.0 | 0.00 | 0.00 | 0.00 | 34 | 1012.4 |
| 20260502220818 | 60 | 67 | 2.6 | 7.0 | 0.00 | 0.00 | 0.00 | 33 | 1012.4 |
| 20260502220318 | 60 | 313 | 2.6 | 7.8 | 0.00 | 0.00 | 0.00 | 37 | 1012.5 |
| 20260502215818 | 59 | 216 | 2.6 | 3.5 | 0.00 | 0.00 | 0.00 | 34 | 1012.5 |
| 20260502215318 | 60 | 216 | 2.6 | 7.0 | 0.00 | 0.00 | 0.00 | 34 | 1012.6 |
| 20260502214818 | 60 | 121 | 3.5 | 7.0 | 0.00 | 0.00 | 0.00 | 33 | 1012.7 |
| 20260502214318 | 59 | 199 | 3.5 | 7.0 | 0.00 | 0.00 | 0.00 | 34 | 1012.7 |
| 20260502213818 | 59 | 132 | 2.6 | 6.1 | 0.00 | 0.00 | 0.00 | 33 | 1012.6 |